Year,Month,Day,Hour,Minute,Value (Times are PST for temperature in C)
2016,05,02,00,00,10.10
2016,05,02,00,01,10.10
2016,05,02,00,02,10.10
2016,05,02,00,03,10.10
2016,05,02,00,04,10.10
2016,05,02,00,05,10.00
2016,05,02,00,06,10.00
2016,05,02,00,07,9.90
2016,05,02,00,08,9.90
2016,05,02,00,09,9.90
2016,05,02,00,10,9.90
2016,05,02,00,11,9.90
2016,05,02,00,12,9.90
2016,05,02,00,13,9.90
2016,05,02,00,14,9.80
2016,05,02,00,15,9.80
2016,05,02,00,16,9.80
2016,05,02,00,17,9.80
2016,05,02,00,18,9.80
2016,05,02,00,19,9.80
2016,05,02,00,20,9.80
2016,05,02,00,21,9.80
2016,05,02,00,22,9.80
2016,05,02,00,23,9.80
2016,05,02,00,24,9.80
2016,05,02,00,25,9.80
2016,05,02,00,26,9.80
2016,05,02,00,27,9.80
2016,05,02,00,28,9.80
2016,05,02,00,29,9.80
2016,05,02,00,30,9.70
2016,05,02,00,31,9.70
2016,05,02,00,32,9.70
2016,05,02,00,33,9.70
2016,05,02,00,34,9.60
2016,05,02,00,35,9.60
2016,05,02,00,36,9.60
2016,05,02,00,37,9.60
2016,05,02,00,38,9.60
2016,05,02,00,39,9.60
2016,05,02,00,40,9.70
2016,05,02,00,41,9.70
2016,05,02,00,42,9.70
2016,05,02,00,43,9.70
2016,05,02,00,44,9.70
2016,05,02,00,45,9.70
2016,05,02,00,46,9.80
2016,05,02,00,47,9.80
2016,05,02,00,48,9.80
2016,05,02,00,49,9.80
2016,05,02,00,50,9.80
2016,05,02,00,51,9.80
2016,05,02,00,52,9.80
2016,05,02,00,53,9.80
2016,05,02,00,54,9.80
2016,05,02,00,55,9.80
2016,05,02,00,56,9.80
2016,05,02,00,57,9.80
2016,05,02,00,58,9.80
2016,05,02,00,59,9.80
2016,05,02,01,00,9.80
2016,05,02,01,01,9.70
2016,05,02,01,02,9.70
2016,05,02,01,03,9.70
2016,05,02,01,04,9.60
2016,05,02,01,05,9.60
2016,05,02,01,06,9.60
2016,05,02,01,07,9.50
2016,05,02,01,08,9.50
2016,05,02,01,09,9.50
2016,05,02,01,10,9.40
2016,05,02,01,11,9.40
2016,05,02,01,12,9.40
2016,05,02,01,13,9.40
2016,05,02,01,14,9.40
2016,05,02,01,15,9.40
2016,05,02,01,16,9.40
2016,05,02,01,17,9.40
2016,05,02,01,18,9.40
2016,05,02,01,19,9.50
2016,05,02,01,20,9.50
2016,05,02,01,21,9.50
2016,05,02,01,22,9.60
2016,05,02,01,23,9.60
2016,05,02,01,24,9.60
2016,05,02,01,25,9.60
2016,05,02,01,26,9.60
2016,05,02,01,27,9.60
2016,05,02,01,28,9.60
2016,05,02,01,29,9.60
2016,05,02,01,30,9.50
2016,05,02,01,31,9.50
2016,05,02,01,32,9.50
2016,05,02,01,33,9.50
2016,05,02,01,34,9.60
2016,05,02,01,35,9.60
2016,05,02,01,36,9.60
2016,05,02,01,37,9.50
2016,05,02,01,38,9.50
2016,05,02,01,39,9.50
2016,05,02,01,40,9.50
2016,05,02,01,41,9.50
2016,05,02,01,42,9.40
2016,05,02,01,43,9.40
2016,05,02,01,44,9.40
2016,05,02,01,45,9.30
2016,05,02,01,46,9.30
2016,05,02,01,47,9.30
2016,05,02,01,48,9.30
2016,05,02,01,49,9.20
2016,05,02,01,50,9.20
2016,05,02,01,51,9.20
2016,05,02,01,52,9.10
2016,05,02,01,53,9.10
2016,05,02,01,54,9.10
2016,05,02,01,55,9.10
2016,05,02,01,56,9.00
2016,05,02,01,57,9.00
2016,05,02,01,58,9.00
2016,05,02,01,59,8.90
2016,05,02,02,00,8.90
2016,05,02,02,01,8.90
2016,05,02,02,02,8.90
2016,05,02,02,03,8.90
2016,05,02,02,04,8.80
2016,05,02,02,05,8.80
2016,05,02,02,06,8.80
2016,05,02,02,07,8.80
2016,05,02,02,08,8.80
2016,05,02,02,09,8.80
2016,05,02,02,10,8.70
2016,05,02,02,11,8.70
2016,05,02,02,12,8.70
2016,05,02,02,13,8.70
2016,05,02,02,14,8.60
2016,05,02,02,15,8.60
2016,05,02,02,16,8.60
2016,05,02,02,17,8.50
2016,05,02,02,18,8.50
2016,05,02,02,19,8.40
2016,05,02,02,20,8.40
2016,05,02,02,21,8.40
2016,05,02,02,22,8.30
2016,05,02,02,23,8.30
2016,05,02,02,24,8.30
2016,05,02,02,25,8.30
2016,05,02,02,26,8.30
2016,05,02,02,27,8.30
2016,05,02,02,28,8.20
2016,05,02,02,29,8.20
2016,05,02,02,30,8.20
2016,05,02,02,31,8.20
2016,05,02,02,32,8.10
2016,05,02,02,33,8.10
2016,05,02,02,34,8.10
2016,05,02,02,35,8.10
2016,05,02,02,36,8.10
2016,05,02,02,37,8.00
2016,05,02,02,38,8.00
2016,05,02,02,39,8.00
2016,05,02,02,40,7.90
2016,05,02,02,41,7.90
2016,05,02,02,42,7.90
2016,05,02,02,43,7.90
2016,05,02,02,44,7.90
2016,05,02,02,45,7.90
2016,05,02,02,46,7.90
2016,05,02,02,47,7.80
2016,05,02,02,48,7.80
2016,05,02,02,49,7.80
2016,05,02,02,50,7.80
2016,05,02,02,51,7.80
2016,05,02,02,52,7.80
2016,05,02,02,53,7.80
2016,05,02,02,54,7.80
2016,05,02,02,55,7.80
2016,05,02,02,56,7.80
2016,05,02,02,57,7.80
2016,05,02,02,58,7.70
2016,05,02,02,59,7.70
2016,05,02,03,00,7.70
2016,05,02,03,01,7.70
2016,05,02,03,02,7.70
2016,05,02,03,03,7.70
2016,05,02,03,04,7.70
2016,05,02,03,05,7.70
2016,05,02,03,06,7.70
2016,05,02,03,07,7.70
2016,05,02,03,08,7.70
2016,05,02,03,09,7.70
2016,05,02,03,10,7.70
2016,05,02,03,11,7.70
2016,05,02,03,12,7.70
2016,05,02,03,13,7.70
2016,05,02,03,14,7.60
2016,05,02,03,15,7.70
2016,05,02,03,16,7.70
2016,05,02,03,17,7.70
2016,05,02,03,18,7.70
2016,05,02,03,19,7.80
2016,05,02,03,20,7.80
2016,05,02,03,21,7.80
2016,05,02,03,22,7.80
2016,05,02,03,23,7.80
2016,05,02,03,24,7.80
2016,05,02,03,25,7.80
2016,05,02,03,26,7.80
2016,05,02,03,27,7.80
2016,05,02,03,28,7.80
2016,05,02,03,29,7.80
2016,05,02,03,30,7.80
2016,05,02,03,31,7.80
2016,05,02,03,32,7.80
2016,05,02,03,33,7.80
2016,05,02,03,34,7.80
2016,05,02,03,35,7.80
2016,05,02,03,36,7.80
2016,05,02,03,37,7.70
2016,05,02,03,38,7.70
2016,05,02,03,39,7.70
2016,05,02,03,40,7.70
2016,05,02,03,41,7.70
2016,05,02,03,42,7.70
2016,05,02,03,43,7.70
2016,05,02,03,44,7.70
2016,05,02,03,45,7.70
2016,05,02,03,46,7.60
2016,05,02,03,47,7.60
2016,05,02,03,48,7.60
2016,05,02,03,49,7.60
2016,05,02,03,50,7.60
2016,05,02,03,51,7.60
2016,05,02,03,52,7.60
2016,05,02,03,53,7.60
2016,05,02,03,54,7.60
2016,05,02,03,55,7.60
2016,05,02,03,56,7.50
2016,05,02,03,57,7.50
2016,05,02,03,58,7.50
2016,05,02,03,59,7.60
2016,05,02,04,00,7.60
2016,05,02,04,01,7.60
2016,05,02,04,02,7.60
2016,05,02,04,03,7.50
2016,05,02,04,04,7.50
2016,05,02,04,05,7.50
2016,05,02,04,06,7.50
2016,05,02,04,07,7.50
2016,05,02,04,08,7.50
2016,05,02,04,09,7.50
2016,05,02,04,10,7.50
2016,05,02,04,11,7.50
2016,05,02,04,12,7.50
2016,05,02,04,13,7.40
2016,05,02,04,14,7.40
2016,05,02,04,15,7.40
2016,05,02,04,16,7.40
2016,05,02,04,17,7.40
2016,05,02,04,18,7.40
2016,05,02,04,19,7.40
2016,05,02,04,20,7.40
2016,05,02,04,21,7.40
2016,05,02,04,22,7.40
2016,05,02,04,23,7.40
2016,05,02,04,24,7.30
2016,05,02,04,25,7.30
2016,05,02,04,26,7.30
2016,05,02,04,27,7.30
2016,05,02,04,28,7.30
2016,05,02,04,29,7.30
2016,05,02,04,30,7.30
2016,05,02,04,31,7.30
2016,05,02,04,32,7.30
2016,05,02,04,33,7.20
2016,05,02,04,34,7.20
2016,05,02,04,35,7.20
2016,05,02,04,36,7.20
2016,05,02,04,37,7.20
2016,05,02,04,38,7.20
2016,05,02,04,39,7.20
2016,05,02,04,40,7.20
2016,05,02,04,41,7.20
2016,05,02,04,42,7.10
2016,05,02,04,43,7.10
2016,05,02,04,44,7.10
2016,05,02,04,45,7.10
2016,05,02,04,46,7.10
2016,05,02,04,47,7.10
2016,05,02,04,48,7.10
2016,05,02,04,49,7.00
2016,05,02,04,50,7.00
2016,05,02,04,51,7.00
2016,05,02,04,52,7.00
2016,05,02,04,53,7.00
2016,05,02,04,54,7.00
2016,05,02,04,55,6.90
2016,05,02,04,56,6.90
2016,05,02,04,57,6.90
2016,05,02,04,58,6.90
2016,05,02,04,59,6.90
2016,05,02,05,00,6.90
2016,05,02,05,01,6.90
2016,05,02,05,02,6.90
2016,05,02,05,03,6.80
2016,05,02,05,04,6.80
2016,05,02,05,05,6.80
2016,05,02,05,06,6.80
2016,05,02,05,07,6.80
2016,05,02,05,08,6.80
2016,05,02,05,09,6.80
2016,05,02,05,10,6.80
2016,05,02,05,11,6.70
2016,05,02,05,12,6.70
2016,05,02,05,13,6.70
2016,05,02,05,14,6.70
2016,05,02,05,15,6.70
2016,05,02,05,16,6.70
2016,05,02,05,17,6.70
2016,05,02,05,18,6.60
2016,05,02,05,19,6.60
2016,05,02,05,20,6.60
2016,05,02,05,21,6.60
2016,05,02,05,22,6.70
2016,05,02,05,23,6.70
2016,05,02,05,24,6.70
2016,05,02,05,25,6.70
2016,05,02,05,26,6.70
2016,05,02,05,27,6.60
2016,05,02,05,28,6.60
2016,05,02,05,29,6.70
2016,05,02,05,30,6.70
2016,05,02,05,31,6.70
2016,05,02,05,32,6.70
2016,05,02,05,33,6.70
2016,05,02,05,34,6.70
2016,05,02,05,35,6.70
2016,05,02,05,36,6.70
2016,05,02,05,37,6.70
2016,05,02,05,38,6.70
2016,05,02,05,39,6.70
2016,05,02,05,40,6.70
2016,05,02,05,41,6.70
2016,05,02,05,42,6.70
2016,05,02,05,43,6.70
2016,05,02,05,44,6.70
2016,05,02,05,45,6.70
2016,05,02,05,46,6.70
2016,05,02,05,47,6.70
2016,05,02,05,48,6.70
2016,05,02,05,49,6.60
2016,05,02,05,50,6.60
2016,05,02,05,51,6.60
2016,05,02,05,52,6.60
2016,05,02,05,53,6.60
2016,05,02,05,54,6.60
2016,05,02,05,55,6.60
2016,05,02,05,56,6.60
2016,05,02,05,57,6.60
2016,05,02,05,58,6.60
2016,05,02,05,59,6.50
2016,05,02,06,00,6.50
2016,05,02,06,01,6.50
2016,05,02,06,02,6.50
2016,05,02,06,03,6.50
2016,05,02,06,04,6.50
2016,05,02,06,05,6.50
2016,05,02,06,06,6.50
2016,05,02,06,07,6.40
2016,05,02,06,08,6.40
2016,05,02,06,09,6.40
2016,05,02,06,10,6.40
2016,05,02,06,11,6.40
2016,05,02,06,12,6.30
2016,05,02,06,13,6.30
2016,05,02,06,14,6.30
2016,05,02,06,15,6.30
2016,05,02,06,16,6.30
2016,05,02,06,17,6.30
2016,05,02,06,18,6.30
2016,05,02,06,19,6.30
2016,05,02,06,20,6.30
2016,05,02,06,21,6.30
2016,05,02,06,22,6.30
2016,05,02,06,23,6.30
2016,05,02,06,24,6.30
2016,05,02,06,25,6.30
2016,05,02,06,26,6.30
2016,05,02,06,27,6.30
2016,05,02,06,28,6.30
2016,05,02,06,29,6.30
2016,05,02,06,30,6.30
2016,05,02,06,31,6.30
2016,05,02,06,32,6.30
2016,05,02,06,33,6.30
2016,05,02,06,34,6.30
2016,05,02,06,35,6.30
2016,05,02,06,36,6.30
2016,05,02,06,37,6.30
2016,05,02,06,38,6.30
2016,05,02,06,39,6.40
2016,05,02,06,40,6.40
2016,05,02,06,41,6.40
2016,05,02,06,42,6.40
2016,05,02,06,43,6.50
2016,05,02,06,44,6.50
2016,05,02,06,45,6.50
2016,05,02,06,46,6.50
2016,05,02,06,47,6.50
2016,05,02,06,48,6.60
2016,05,02,06,49,6.60
2016,05,02,06,50,6.60
2016,05,02,06,51,6.60
2016,05,02,06,52,6.60
2016,05,02,06,53,6.70
2016,05,02,06,54,6.70
2016,05,02,06,55,6.70
2016,05,02,06,56,6.80
2016,05,02,06,57,6.80
2016,05,02,06,58,6.80
2016,05,02,06,59,6.90
2016,05,02,07,00,6.90
2016,05,02,07,01,6.90
2016,05,02,07,02,7.00
2016,05,02,07,03,7.00
2016,05,02,07,04,7.10
2016,05,02,07,05,7.20
2016,05,02,07,06,7.20
2016,05,02,07,07,7.20
2016,05,02,07,08,7.30
2016,05,02,07,09,7.30
2016,05,02,07,10,7.30
2016,05,02,07,11,7.40
2016,05,02,07,12,7.40
2016,05,02,07,13,7.50
2016,05,02,07,14,7.50
2016,05,02,07,15,7.60
2016,05,02,07,16,7.60
2016,05,02,07,17,7.70
2016,05,02,07,18,7.70
2016,05,02,07,19,7.80
2016,05,02,07,20,7.90
2016,05,02,07,21,8.00
2016,05,02,07,22,8.00
2016,05,02,07,23,8.10
2016,05,02,07,24,8.10
2016,05,02,07,25,8.10
2016,05,02,07,26,8.20
2016,05,02,07,27,8.20
2016,05,02,07,28,8.20
2016,05,02,07,29,8.20
2016,05,02,07,30,8.20
2016,05,02,07,31,8.30
2016,05,02,07,32,8.30
2016,05,02,07,33,8.30
2016,05,02,07,34,8.30
2016,05,02,07,35,8.30
2016,05,02,07,36,8.30
2016,05,02,07,37,8.30
2016,05,02,07,38,8.30
2016,05,02,07,39,8.40
2016,05,02,07,40,8.40
2016,05,02,07,41,8.50
2016,05,02,07,42,8.50
2016,05,02,07,43,8.50
2016,05,02,07,44,8.50
2016,05,02,07,45,8.50
2016,05,02,07,46,8.40
2016,05,02,07,47,8.40
2016,05,02,07,48,8.40
2016,05,02,07,49,8.40
2016,05,02,07,50,8.40
2016,05,02,07,51,8.30
2016,05,02,07,52,8.30
2016,05,02,07,53,8.30
2016,05,02,07,54,8.30
2016,05,02,07,55,8.30
2016,05,02,07,56,8.30
2016,05,02,07,57,8.20
2016,05,02,07,58,8.20
2016,05,02,07,59,8.20
2016,05,02,08,00,8.10
2016,05,02,08,01,8.10
2016,05,02,08,02,8.10
2016,05,02,08,03,8.00
2016,05,02,08,04,8.00
2016,05,02,08,05,7.90
2016,05,02,08,06,7.90
2016,05,02,08,07,7.90
2016,05,02,08,08,7.90
2016,05,02,08,09,7.90
2016,05,02,08,10,7.90
2016,05,02,08,11,7.90
2016,05,02,08,12,8.00
2016,05,02,08,13,8.10
2016,05,02,08,14,8.10
2016,05,02,08,15,8.20
2016,05,02,08,16,8.20
2016,05,02,08,17,8.30
2016,05,02,08,18,8.30
2016,05,02,08,19,8.40
2016,05,02,08,20,8.40
2016,05,02,08,21,8.40
2016,05,02,08,22,8.40
2016,05,02,08,23,8.40
2016,05,02,08,24,8.40
2016,05,02,08,25,8.40
2016,05,02,08,26,8.40
2016,05,02,08,27,8.40
2016,05,02,08,28,8.40
2016,05,02,08,29,8.40
2016,05,02,08,30,8.40
2016,05,02,08,31,8.40
2016,05,02,08,32,8.40
2016,05,02,08,33,8.40
2016,05,02,08,34,8.40
2016,05,02,08,35,8.40
2016,05,02,08,36,8.40
2016,05,02,08,37,8.40
2016,05,02,08,38,8.40
2016,05,02,08,39,8.40
2016,05,02,08,40,8.50
2016,05,02,08,41,8.50
2016,05,02,08,42,8.50
2016,05,02,08,43,8.50
2016,05,02,08,44,8.50
2016,05,02,08,45,8.60
2016,05,02,08,46,8.60
2016,05,02,08,47,8.60
2016,05,02,08,48,8.60
2016,05,02,08,49,8.60
2016,05,02,08,50,8.60
2016,05,02,08,51,8.60
2016,05,02,08,52,8.60
2016,05,02,08,53,8.70
2016,05,02,08,54,8.70
2016,05,02,08,55,8.70
2016,05,02,08,56,8.70
2016,05,02,08,57,8.70
2016,05,02,08,58,8.70
2016,05,02,08,59,8.70
2016,05,02,09,00,8.70
2016,05,02,09,01,8.70
2016,05,02,09,02,8.70
2016,05,02,09,03,8.70
2016,05,02,09,04,8.80
2016,05,02,09,05,8.80
2016,05,02,09,06,8.90
2016,05,02,09,07,8.90
2016,05,02,09,08,9.00
2016,05,02,09,09,9.00
2016,05,02,09,10,9.10
2016,05,02,09,11,9.10
2016,05,02,09,12,9.20
2016,05,02,09,13,9.30
2016,05,02,09,14,9.30
2016,05,02,09,15,9.30
2016,05,02,09,16,9.40
2016,05,02,09,17,9.40
2016,05,02,09,18,9.50
2016,05,02,09,19,9.60
2016,05,02,09,20,9.60
2016,05,02,09,21,9.70
2016,05,02,09,22,9.70
2016,05,02,09,23,9.70
2016,05,02,09,24,9.70
2016,05,02,09,25,9.80
2016,05,02,09,26,9.80
2016,05,02,09,27,9.80
2016,05,02,09,28,9.90
2016,05,02,09,29,9.90
2016,05,02,09,30,9.90
2016,05,02,09,31,9.90
2016,05,02,09,32,9.90
2016,05,02,09,33,10.00
2016,05,02,09,34,10.00
2016,05,02,09,35,10.10
2016,05,02,09,36,10.10
2016,05,02,09,37,10.10
2016,05,02,09,38,10.10
2016,05,02,09,39,10.20
2016,05,02,09,40,10.20
2016,05,02,09,41,10.20
2016,05,02,09,42,10.20
2016,05,02,09,43,10.30
2016,05,02,09,44,10.40
2016,05,02,09,45,10.50
2016,05,02,09,46,10.60
2016,05,02,09,47,10.70
2016,05,02,09,48,10.80
2016,05,02,09,49,10.90
2016,05,02,09,50,11.10
2016,05,02,09,51,11.30
2016,05,02,09,52,11.40
2016,05,02,09,53,11.50
2016,05,02,09,54,11.60
2016,05,02,09,55,11.80
2016,05,02,09,56,11.90
2016,05,02,09,57,12.00
2016,05,02,09,58,12.00
2016,05,02,09,59,12.10
2016,05,02,10,00,12.20
2016,05,02,10,01,12.30
2016,05,02,10,02,12.40
2016,05,02,10,03,12.50
2016,05,02,10,04,12.60
2016,05,02,10,05,12.70
2016,05,02,10,06,12.80
2016,05,02,10,07,13.00
2016,05,02,10,08,13.20
2016,05,02,10,09,13.20
2016,05,02,10,10,13.30
2016,05,02,10,11,13.40
2016,05,02,10,12,13.50
2016,05,02,10,13,13.60
2016,05,02,10,14,13.70
2016,05,02,10,15,13.80
2016,05,02,10,16,13.90
2016,05,02,10,17,14.00
2016,05,02,10,18,14.10
2016,05,02,10,19,14.20
2016,05,02,10,20,14.30
2016,05,02,10,21,14.40
2016,05,02,10,22,14.50
2016,05,02,10,23,14.50
2016,05,02,10,24,14.70
2016,05,02,10,25,14.80
2016,05,02,10,26,14.90
2016,05,02,10,27,15.00
2016,05,02,10,28,15.10
2016,05,02,10,29,15.10
2016,05,02,10,30,15.20
2016,05,02,10,31,15.20
2016,05,02,10,32,15.30
2016,05,02,10,33,15.30
2016,05,02,10,34,15.30
2016,05,02,10,35,15.50
2016,05,02,10,36,15.50
2016,05,02,10,37,15.60
2016,05,02,10,38,15.70
2016,05,02,10,39,15.70
2016,05,02,10,40,15.80
2016,05,02,10,41,15.90
2016,05,02,10,42,15.90
2016,05,02,10,43,16.10
2016,05,02,10,44,16.10
2016,05,02,10,45,16.20
2016,05,02,10,46,16.20
2016,05,02,10,47,16.30
2016,05,02,10,48,16.40
2016,05,02,10,49,16.50
2016,05,02,10,50,16.60
2016,05,02,10,51,16.70
2016,05,02,10,52,16.80
2016,05,02,10,53,16.90
2016,05,02,10,54,17.00
2016,05,02,10,55,17.10
2016,05,02,10,56,17.20
2016,05,02,10,57,17.20
2016,05,02,10,58,17.30
2016,05,02,10,59,17.30
2016,05,02,11,00,17.40
2016,05,02,11,01,17.40
2016,05,02,11,02,17.50
2016,05,02,11,03,17.60
2016,05,02,11,04,17.60
2016,05,02,11,05,17.70
2016,05,02,11,06,17.70
2016,05,02,11,07,17.80
2016,05,02,11,08,17.90
2016,05,02,11,09,18.00
2016,05,02,11,10,18.10
2016,05,02,11,11,18.20
2016,05,02,11,12,18.40
2016,05,02,11,13,18.50
2016,05,02,11,14,18.60
2016,05,02,11,15,18.70
2016,05,02,11,16,18.80
2016,05,02,11,17,18.90
2016,05,02,11,18,19.00
2016,05,02,11,19,19.10
2016,05,02,11,20,19.20
2016,05,02,11,21,19.20
2016,05,02,11,22,19.30
2016,05,02,11,23,19.40
2016,05,02,11,24,19.50
2016,05,02,11,25,19.50
2016,05,02,11,26,19.60
2016,05,02,11,27,19.70
2016,05,02,11,28,19.70
2016,05,02,11,29,19.80
2016,05,02,11,30,19.90
2016,05,02,11,31,20.00
2016,05,02,11,32,20.10
2016,05,02,11,33,20.20
2016,05,02,11,34,20.30
2016,05,02,11,35,20.30
2016,05,02,11,36,20.40
2016,05,02,11,37,20.50
2016,05,02,11,38,20.60
2016,05,02,11,39,20.70
2016,05,02,11,40,20.70
2016,05,02,11,41,20.80
2016,05,02,11,42,20.80
2016,05,02,11,43,20.80
2016,05,02,11,44,20.80
2016,05,02,11,45,20.80
2016,05,02,11,46,20.80
2016,05,02,11,47,20.80
2016,05,02,11,48,20.90
2016,05,02,11,49,21.00
2016,05,02,11,50,21.10
2016,05,02,11,51,21.20
2016,05,02,11,52,21.20
2016,05,02,11,53,21.20
2016,05,02,11,54,21.20
2016,05,02,11,55,21.20
2016,05,02,11,56,21.20
2016,05,02,11,57,21.30
2016,05,02,11,58,21.30
2016,05,02,11,59,21.40
2016,05,02,12,00,21.50
2016,05,02,12,01,21.60
2016,05,02,12,02,21.60
2016,05,02,12,03,21.70
2016,05,02,12,04,21.80
2016,05,02,12,05,21.80
2016,05,02,12,06,21.90
2016,05,02,12,07,22.00
2016,05,02,12,08,22.10
2016,05,02,12,09,22.20
2016,05,02,12,10,22.40
2016,05,02,12,11,22.50
2016,05,02,12,12,22.60
2016,05,02,12,13,22.70
2016,05,02,12,14,22.80
2016,05,02,12,15,22.90
2016,05,02,12,16,23.00
2016,05,02,12,17,23.10
2016,05,02,12,18,23.00
2016,05,02,12,19,23.00
2016,05,02,12,20,22.90
2016,05,02,12,21,23.00
2016,05,02,12,22,23.00
2016,05,02,12,23,23.00
2016,05,02,12,24,23.00
2016,05,02,12,25,23.10
2016,05,02,12,26,23.10
2016,05,02,12,27,23.20
2016,05,02,12,28,23.30
2016,05,02,12,29,23.30
2016,05,02,12,30,23.40
2016,05,02,12,31,23.50
2016,05,02,12,32,23.50
2016,05,02,12,33,23.60
2016,05,02,12,34,23.70
2016,05,02,12,35,23.70
2016,05,02,12,36,23.80
2016,05,02,12,37,23.80
2016,05,02,12,38,23.80
2016,05,02,12,39,23.80
2016,05,02,12,40,23.80
2016,05,02,12,41,23.90
2016,05,02,12,42,23.90
2016,05,02,12,43,23.90
2016,05,02,12,44,24.00
2016,05,02,12,45,24.00
2016,05,02,12,46,24.10
2016,05,02,12,47,24.20
2016,05,02,12,48,24.30
2016,05,02,12,49,24.40
2016,05,02,12,50,24.50
2016,05,02,12,51,24.60
2016,05,02,12,52,24.70
2016,05,02,12,53,24.70
2016,05,02,12,54,24.80
2016,05,02,12,55,24.80
2016,05,02,12,56,24.80
2016,05,02,12,57,24.80
2016,05,02,12,58,24.80
2016,05,02,12,59,24.80
2016,05,02,13,00,24.90
2016,05,02,13,01,24.90
2016,05,02,13,02,24.90
2016,05,02,13,03,25.00
2016,05,02,13,04,25.00
2016,05,02,13,05,25.10
2016,05,02,13,06,25.00
2016,05,02,13,07,25.00
2016,05,02,13,08,24.80
2016,05,02,13,09,24.70
2016,05,02,13,10,24.60
2016,05,02,13,11,24.60
2016,05,02,13,12,24.50
2016,05,02,13,13,24.40
2016,05,02,13,14,24.40
2016,05,02,13,15,24.40
2016,05,02,13,16,24.40
2016,05,02,13,17,24.40
2016,05,02,13,18,24.30
2016,05,02,13,19,24.20
2016,05,02,13,20,24.10
2016,05,02,13,21,24.00
2016,05,02,13,22,24.00
2016,05,02,13,23,24.00
2016,05,02,13,24,24.00
2016,05,02,13,25,24.00
2016,05,02,13,26,24.00
2016,05,02,13,27,24.00
2016,05,02,13,28,23.90
2016,05,02,13,29,23.80
2016,05,02,13,30,23.70
2016,05,02,13,31,23.60
2016,05,02,13,32,23.60
2016,05,02,13,33,23.60
2016,05,02,13,34,23.80
2016,05,02,13,35,23.90
2016,05,02,13,36,24.00
2016,05,02,13,37,24.20
2016,05,02,13,38,24.20
2016,05,02,13,39,24.30
2016,05,02,13,40,24.40
2016,05,02,13,41,24.40
2016,05,02,13,42,24.50
2016,05,02,13,43,24.50
2016,05,02,13,44,24.50
2016,05,02,13,45,24.60
2016,05,02,13,46,24.50
2016,05,02,13,47,24.50
2016,05,02,13,48,24.50
2016,05,02,13,49,24.50
2016,05,02,13,50,24.50
2016,05,02,13,51,24.50
2016,05,02,13,52,24.50
2016,05,02,13,53,24.60
2016,05,02,13,54,24.60
2016,05,02,13,55,24.70
2016,05,02,13,56,24.80
2016,05,02,13,57,24.80
2016,05,02,13,58,24.80
2016,05,02,13,59,24.80
2016,05,02,14,00,24.90
2016,05,02,14,01,24.90
2016,05,02,14,02,24.90
2016,05,02,14,03,24.80
2016,05,02,14,04,24.60
2016,05,02,14,05,24.50
2016,05,02,14,06,24.40
2016,05,02,14,07,24.40
2016,05,02,14,08,24.50
2016,05,02,14,09,24.50
2016,05,02,14,10,24.60
2016,05,02,14,11,24.60
2016,05,02,14,12,24.70
2016,05,02,14,13,24.70
2016,05,02,14,14,24.80
2016,05,02,14,15,24.70
2016,05,02,14,16,24.40
2016,05,02,14,17,24.00
2016,05,02,14,18,23.80
2016,05,02,14,19,23.50
2016,05,02,14,20,23.30
2016,05,02,14,21,23.20
2016,05,02,14,22,23.20
2016,05,02,14,23,23.30
2016,05,02,14,24,23.30
2016,05,02,14,25,23.40
2016,05,02,14,26,23.40
2016,05,02,14,27,23.50
2016,05,02,14,28,23.60
2016,05,02,14,29,23.70
2016,05,02,14,30,23.70
2016,05,02,14,31,23.70
2016,05,02,14,32,23.70
2016,05,02,14,33,23.70
2016,05,02,14,34,23.70
2016,05,02,14,35,23.80
2016,05,02,14,36,23.80
2016,05,02,14,37,23.80
2016,05,02,14,38,23.80
2016,05,02,14,39,23.80
2016,05,02,14,40,23.90
2016,05,02,14,41,23.90
2016,05,02,14,42,23.80
2016,05,02,14,43,23.80
2016,05,02,14,44,23.80
2016,05,02,14,45,23.70
2016,05,02,14,46,23.70
2016,05,02,14,47,23.60
2016,05,02,14,48,23.60
2016,05,02,14,49,23.60
2016,05,02,14,50,23.60
2016,05,02,14,51,23.70
2016,05,02,14,52,23.70
2016,05,02,14,53,23.80
2016,05,02,14,54,23.80
2016,05,02,14,55,23.90
2016,05,02,14,56,23.90
2016,05,02,14,57,24.00
2016,05,02,14,58,24.00
2016,05,02,14,59,24.10
2016,05,02,15,00,24.10
2016,05,02,15,01,24.10
2016,05,02,15,02,24.10
2016,05,02,15,03,24.10
2016,05,02,15,04,24.10
2016,05,02,15,05,24.10
2016,05,02,15,06,24.10
2016,05,02,15,07,24.10
2016,05,02,15,08,24.10
2016,05,02,15,09,24.10
2016,05,02,15,10,24.10
2016,05,02,15,11,24.10
2016,05,02,15,12,24.10
2016,05,02,15,13,24.10
2016,05,02,15,14,24.20
2016,05,02,15,15,24.20
2016,05,02,15,16,24.20
2016,05,02,15,17,24.20
2016,05,02,15,18,24.20
2016,05,02,15,19,24.10
2016,05,02,15,20,24.10
2016,05,02,15,21,24.10
2016,05,02,15,22,24.00
2016,05,02,15,23,23.90
2016,05,02,15,24,23.80
2016,05,02,15,25,23.80
2016,05,02,15,26,23.80
2016,05,02,15,27,23.80
2016,05,02,15,28,23.90
2016,05,02,15,29,23.90
2016,05,02,15,30,24.00
2016,05,02,15,31,24.10
2016,05,02,15,32,24.20
2016,05,02,15,33,24.30
2016,05,02,15,34,24.30
2016,05,02,15,35,24.40
2016,05,02,15,36,24.40
2016,05,02,15,37,24.30
2016,05,02,15,38,24.20
2016,05,02,15,39,24.10
2016,05,02,15,40,24.00
2016,05,02,15,41,23.90
2016,05,02,15,42,23.90
2016,05,02,15,43,23.80
2016,05,02,15,44,23.80
2016,05,02,15,45,23.70
2016,05,02,15,46,23.70
2016,05,02,15,47,23.80
2016,05,02,15,48,23.80
2016,05,02,15,49,23.80
2016,05,02,15,50,23.90
2016,05,02,15,51,23.90
2016,05,02,15,52,24.00
2016,05,02,15,53,24.10
2016,05,02,15,54,24.10
2016,05,02,15,55,24.10
2016,05,02,15,56,24.20
2016,05,02,15,57,24.20
2016,05,02,15,58,24.20
2016,05,02,15,59,24.20
2016,05,02,16,00,24.20
2016,05,02,16,01,24.20
2016,05,02,16,02,24.20
2016,05,02,16,03,24.20
2016,05,02,16,04,24.00
2016,05,02,16,05,23.90
2016,05,02,16,06,23.70
2016,05,02,16,07,23.50
2016,05,02,16,08,23.30
2016,05,02,16,09,23.10
2016,05,02,16,10,23.00
2016,05,02,16,11,22.90
2016,05,02,16,12,22.90
2016,05,02,16,13,22.80
2016,05,02,16,14,22.80
2016,05,02,16,15,22.80
2016,05,02,16,16,22.80
2016,05,02,16,17,22.80
2016,05,02,16,18,22.90
2016,05,02,16,19,23.00
2016,05,02,16,20,23.00
2016,05,02,16,21,23.00
2016,05,02,16,22,22.90
2016,05,02,16,23,22.90
2016,05,02,16,24,22.90
2016,05,02,16,25,22.90
2016,05,02,16,26,23.00
2016,05,02,16,27,23.10
2016,05,02,16,28,23.10
2016,05,02,16,29,23.20
2016,05,02,16,30,23.20
2016,05,02,16,31,23.20
2016,05,02,16,32,23.20
2016,05,02,16,33,23.10
2016,05,02,16,34,23.00
2016,05,02,16,35,22.90
2016,05,02,16,36,22.90
2016,05,02,16,37,22.90
2016,05,02,16,38,22.80
2016,05,02,16,39,22.80
2016,05,02,16,40,22.80
2016,05,02,16,41,22.80
2016,05,02,16,42,22.70
2016,05,02,16,43,22.70
2016,05,02,16,44,22.70
2016,05,02,16,45,22.60
2016,05,02,16,46,22.60
2016,05,02,16,47,22.60
2016,05,02,16,48,22.60
2016,05,02,16,49,22.70
2016,05,02,16,50,22.70
2016,05,02,16,51,22.70
2016,05,02,16,52,22.70
2016,05,02,16,53,22.70
2016,05,02,16,54,22.70
2016,05,02,16,55,22.70
2016,05,02,16,56,22.70
2016,05,02,16,57,22.70
2016,05,02,16,58,22.70
2016,05,02,16,59,22.70
2016,05,02,17,00,22.70
2016,05,02,17,01,22.70
2016,05,02,17,02,22.80
2016,05,02,17,03,22.80
2016,05,02,17,04,22.80
2016,05,02,17,05,22.80
2016,05,02,17,06,22.80
2016,05,02,17,07,22.80
2016,05,02,17,08,22.70
2016,05,02,17,09,22.60
2016,05,02,17,10,22.40
2016,05,02,17,11,22.40
2016,05,02,17,12,22.30
2016,05,02,17,13,22.20
2016,05,02,17,14,22.20
2016,05,02,17,15,22.10
2016,05,02,17,16,22.00
2016,05,02,17,17,21.90
2016,05,02,17,18,21.80
2016,05,02,17,19,21.70
2016,05,02,17,20,21.60
2016,05,02,17,21,21.60
2016,05,02,17,22,21.50
2016,05,02,17,23,21.50
2016,05,02,17,24,21.50
2016,05,02,17,25,21.50
2016,05,02,17,26,21.60
2016,05,02,17,27,21.60
2016,05,02,17,28,21.60
2016,05,02,17,29,21.60
2016,05,02,17,30,21.70
2016,05,02,17,31,21.70
2016,05,02,17,32,21.80
2016,05,02,17,33,21.80
2016,05,02,17,34,21.90
2016,05,02,17,35,21.90
2016,05,02,17,36,21.90
2016,05,02,17,37,22.00
2016,05,02,17,38,22.00
2016,05,02,17,39,22.00
2016,05,02,17,40,22.00
2016,05,02,17,41,21.90
2016,05,02,17,42,21.90
2016,05,02,17,43,21.80
2016,05,02,17,44,21.80